Preview of NWS' New Version of Forecast
This preview is not operational and should not be used for support decisions.
Latest weather observations around

Buckley Air Force Base Airport (KBKF)

Using English Units (Switch to International System of Units)
Date/ Time (MDT) Wind (mph) Vis. (mi) Weather Sky Cond. Temp (°F) Rel. Humidity Wind Chill (°F) Heat Index (°F) Pressure Precip. (in)
Air Dwpt 6 hour Altimeter (inHg) Sea level (inHg) 1 hr 3 hr 6 hr
Max Min
May 19 19:58 NW 10 10 Mostly Cloudy SCT040 SCT060 BKN090 BKN120 BKN200 46 38     73% 41   29.9 29.86      
May 19 18:58 NW 11 10 Mostly Cloudy SCT040 SCT060 BKN140 BKN200 48 38     69% 43   29.88 29.82      
May 19 17:58 WNW 10 10 Mostly Cloudy SCT055 SCT075 BKN140 BKN200 50 38     65% 45   29.88 29.82     0
May 19 16:58 WNW 10 10 Mostly Cloudy SCT045 SCT080 BKN140 BKN200 54 40     60%     29.87 29.8 0    
May 19 16:22 WNW 13 10 Mostly Cloudy SCT040 BKN060 BKN120 BKN200 55 39     54%     29.86 29.78      
May 19 15:58 S 5 10 Light Rain SCT040 BKN060 BKN120 BKN200 56 38     50%     29.86 29.78 0    
May 19 15:49   10 Light Rain FEW040 BKN065 BKN120 BKN200 57 37     47%     29.87 29.79      
May 19 15:18 NE 17 10 Mostly Cloudy SCT040 BKN065 BKN130 BKN200 57 41     55%     29.87 29.79      
May 19 15:04 NE 17 10 Light Rain SCT045 BKN070 BKN130 BKN200 55 39     54%     29.88 29.8      
May 19 14:58 NE 17 10 Mostly Cloudy FEW045 SCT070 BKN130 BKN200 55 40     56%     29.88 29.8      
May 19 13:58 NE 17 10 Partly Cloudy FEW035 FEW130 SCT200 58 40     52%     29.9 29.8      
May 19 12:58 ENE 13 10 Mostly Cloudy FEW030 SCT075 BKN130 BKN180 53 39     59%     29.93 29.85      
May 19 11:58 ENE 10 10 Mostly Cloudy FEW025 SCT060 BKN130 BKN180 52 39     62%     29.95 29.87      
May 19 11:38 NE 9 10 Mostly Cloudy SCT024 BKN060 BKN130 50 39     66%     29.96 29.88      
May 19 10:58 ESE 6 10 Mostly Cloudy BKN022 BKN060 47 37     70% 44   29.98 29.91      
May 19 09:58 ESE 9 10 Mostly Cloudy FEW018 BKN025 BKN070 44 37     75% 39   29.98 29.9      
May 19 08:58 ENE 7 10 Mostly Cloudy SCT015 BKN025 40 36     86% 35   30 29.93      
May 19 07:58 ENE 6 10 Cloudy OVC012 37 34     87% 32   30.01 29.95      
May 19 06:58 ENE 8 10 Cloudy OVC012 36 34     91% 30   30 29.93      
May 19 05:58 ENE 8 10 Cloudy OVC010 36 35     97% 29   30 29.93      
May 19 04:58 E 6 10 Cloudy BKN011 OVC028 36 36     99% 31   29.98 29.91      
May 19 03:58 E 11 10 Cloudy BKN009 OVC011 36 36     99% 28   29.96 29.87      
May 19 02:58 ENE 11 10 Cloudy BKN009 OVC015 37 37     99% 30   29.97 29.88      
May 19 01:58 ENE 13 10 Mostly Cloudy BKN014 38 38     99% 30   29.96 29.88      
May 19 00:58 ENE 8 10 Mostly Cloudy BKN014 39 39     99% 33   29.95 29.88      
May 18 23:58 N 3 10 Mostly Cloudy FEW015 BKN050 40 40     99% 38   29.94 29.85 0   0
May 18 23:21 E 6 10 Mostly Clear FEW014 FEW050 43 43     100% 39   29.93 29.83      
May 18 23:08 SE 10 8 Light Rain SCT015 BKN030 43 43     100% 37   29.94 29.85      
May 18 22:58 Calm 10 Mostly Cloudy SCT015 BKN050 43 42     99%     29.95 29.85 0    
May 18 22:48 ENE 6 10 Mostly Cloudy FEW012 BKN030 43 43     100% 39   29.95 29.85      
May 18 22:07 NE 10 9 Light Rain SCT055 BKN090 46 37     71% 41   29.92 29.81      
May 18 21:58 E 10 10 Mostly Cloudy SCT055 SCT090 BKN200 47 36     67% 42   29.91 29.8      
May 18 20:58 E 14 10 Mostly Cloudy FEW065 SCT090 SCT140 BKN200 49 36     62% 43   29.86 29.75      
May 18 19:58 NE 6 10 Mostly Cloudy FEW065 FEW090 SCT150 BKN200 53 32     46%     29.84 29.74      
May 18 18:58 Calm 10 Mostly Cloudy FEW060 FEW100 SCT140 BKN200 53 33     46%     29.8 29.7      
May 18 17:58 SSE 11 10 Mostly Cloudy FEW070 FEW100 SCT150 BKN200 54 36     50%     29.79 29.72      
May 18 16:58 SE 13 10 Mostly Cloudy FEW080 SCT150 BKN200 55 35     47%     29.8 29.71      
May 18 15:58 NNE 14 10 Mostly Cloudy FEW070 FEW100 SCT150 BKN200 60 27     28%     29.78 29.68      
May 18 14:58 NNE 15 10 Mostly Cloudy FEW065 SCT120 SCT150 BKN200 58 29     33%     29.78 29.68      
May 18 13:58 NNE 8 10 Mostly Cloudy FEW065 SCT080 BKN160 BKN200 55 28     36%     29.77 29.68      
May 18 12:58 WSW 6 10 Mostly Cloudy FEW070 SCT095 BKN160 BKN200 51 30     44%     29.78 29.69      
May 18 11:58 NNE 13 10 Mostly Cloudy SCT080 SCT100 BKN170 BKN200 57 35     44%     29.76 29.66      
May 18 10:58 NE 10 10 Mostly Cloudy FEW080 SCT095 SCT170 BKN200 53 34     48%     29.76 29.66      
May 18 09:58 N 8 10 Mostly Cloudy FEW080 BKN095 BKN150 BKN200 52 29     41%     29.74 29.65      
May 18 08:58 S 3 10 Mostly Cloudy FEW080 SCT150 BKN200 50 32     50%     29.75 29.66      
May 18 07:58 S 6 10 Mostly Cloudy FEW080 SCT150 BKN200 44 35     71% 41   29.74 29.67      
May 18 06:58 S 9 10 Partly Cloudy FEW080 FEW150 SCT200 41 34     76% 35   29.73 29.64      
May 18 05:58 SSW 9 10 Partly Cloudy FEW080 SCT200 37 32     83% 30   29.73 29.65      
May 18 04:58 S 6 10 Partly Cloudy SCT080 37 35     90% 33   29.72 29.62      
May 18 03:58 S 9 10 Mostly Clear FEW080 38 36     96% 31   29.72 29.62      
May 18 02:58 S 9 10 Mostly Clear FEW080 38 38     99% 31   29.71 29.59      
May 18 01:58 SSW 7 10 Mostly Clear FEW080 39 39     99% 34   29.74 29.59      
May 18 00:58 S 7 10 Mostly Clear FEW080 40 40     99% 35   29.75 29.6      
May 17 23:58 S 9 10 Mostly Clear FEW080 40 39     99% 33   29.77 29.61     0
May 17 22:58 SSE 6 10 Partly Cloudy SCT080 42 41     99% 38   29.78 29.61      
May 17 21:58 S 7 10 Partly Cloudy SCT080 42 42     100% 38   29.77 29.61      
May 17 20:58 E 3 10 Partly Cloudy SCT080 44 44     99% 42   29.72 29.59   0  
May 17 19:58 NNE 11 10 Mostly Cloudy FEW040 BKN080 46 45     95% 41   29.7   0    
May 17 18:58 NNW 9 10 Light Rain FEW040 BKN080 50 40     68%     29.7 29.53 0    
May 17 18:48 NW 5 10 Light Rain FEW040 BKN080 50 41     71%     29.71 29.5      
May 17 17:58 NNE 22 10 Mostly Cloudy and Windy BKN080 BKN200 53 41     65%     29.64 29.5      
May 17 16:58 NNE 23 10 Mostly Cloudy and Windy BKN080 BKN200 58 43     57%     29.6 29.44      
May 17 15:58 NNE 20 10 Mostly Cloudy and Windy BKN080 BKN200 58 44     60%     29.56 29.38      
May 17 14:58 NNW 17 10 Mostly Cloudy BKN080 BKN200 63 39     40%     29.54 29.34      
May 17 13:58 NE 15 10 Mostly Cloudy BKN080 BKN200 70 33     26%     29.52 29.31      
May 17 12:58 ENE 9 10 Mostly Cloudy SCT070 SCT110 BKN220 73 41     32%   72 29.53 29.3      
May 17 11:58 E 3 10 Mostly Cloudy SCT070 SCT110 BKN220 70 33     26%     29.57 29.36      
May 17 10:58 NNE 9 10 Mostly Cloudy FEW080 SCT110 BKN220 70 45     41%     29.58 29.37      
May 17 09:58 SW 14 10 Partly Cloudy FEW080 FEW110 SCT220 64 41     42%     29.62 29.44      
May 17 08:58 WSW 14 10 Mostly Cloudy FEW080 SCT110 BKN220 61 42     49%     29.64 29.45      
May 17 07:58 WSW 7 10 Mostly Cloudy SCT110 BKN220 60 41     49%     29.64 29.45      
May 17 06:58 SW 10 10 Mostly Cloudy SCT110 BKN220 56 39     54%     29.65 29.45      
May 17 05:58 WNW 5 10 Partly Cloudy FEW110 SCT220 53 39     58%     29.65 29.46      
May 17 04:58 S 11 10 Mostly Clear FEW110 54 39     55%     29.66 29.47      
May 17 03:58 SSW 10 10 Mostly Clear FEW110 55 38     53%     29.67 29.47      
May 17 02:58 S 6 10 Partly Cloudy SCT110 58 37     46%     29.68 29.47      
May 17 01:58 SSW 11 10 Partly Cloudy SCT110 58 38     47%     29.7 29.49      
May 17 00:58 WSW 9 10 Partly Cloudy SCT120 61 39     44%     29.71 29.48      
May 16 23:58 SSW 11 10 Partly Cloudy FEW130 SCT170 57 39     50%     29.73 29.52      
May 16 22:58 SW 11 10 Partly Cloudy FEW120 SCT200 58 40     51%     29.73 29.52      
May 16 21:58 SSE 13 10 Partly Cloudy FEW120 SCT200 60 37     43%     29.73 29.53      
May 16 20:58 SE 11 10 Partly Cloudy FEW120 SCT200 61 40     45%     29.74 29.55      
May 16 19:58 SSE 9 10 Clear   66 40     38%     29.75 29.55      
Notice The following observation data may not be complete
May 15 00:58   10 Mostly Cloudy FEW050 BKN070 BKN110          %              
May 14 21:40 NW 5 10 Light Rain SCT065 BKN100 52 48     87%     30.18        
May 14 15:58 N 8 10 Mostly Cloudy SCT065 SCT100 BKN200 65 41     42%     30.04 29.89      
May 13 21:20 N 6 10 Cloudy SCT015 OVC023 55 54     94%     30.07        
May 13 20:55 NNW 6 10 Light Rain SCT015 OVC025 55 52     88%     30.05        
May 12 21:58 ENE 10 10 Cloudy OVC010 53 51     94%     30.04 29.93      
May 12 14:58 ENE 15 10 Clear   68 52     57%     29.96 29.8      
May 12 13:58 ENE 14 10 Mostly Cloudy FEW025 BKN025 BKN050 BKN200 65 52     62%     29.97        
May 11 21:34 NE 9 0.5 Light Drizzle and Fog VV002 52 52     100%     29.89        
May 11 19:50 NNE 15 10 Cloudy BKN008 OVC014 57 54     88%     29.81        
Jun 11 23:58 SE 5 10 Mostly Cloudy BKN040 BKN150 BKN220 61 56     84%     29.96 29.77      
Jun 11 20:58 E 5 10 Partly Cloudy FEW050 SCT150 66 54     66%     29.93 29.73      
Jun 11 07:58 S 8 10 Mostly Cloudy SCT150 BKN220 67 42     40%       29.59      
Jun 10 23:58 SSW 9 10 Partly Cloudy SCT220 65 54     68%     29.73 29.47      
Jun 10 16:58 WSW 11 10 Partly Cloudy FEW100 SCT200 93 29     10%   88 29.65 29.37      
Jun 10 12:58 ESE 9 10 Partly Cloudy FEW150 SCT220 89        %     29.77 29.5      
Jun 10 11:58 S 9 10 Partly Cloudy FEW150 SCT220 86 33     15%   83 29.79 29.52      
Jun 09 19:58 S 14 10 Clear CLR 78        %     29.74 29.49      
Jun 09 08:58 S 10 10 Mostly Cloudy BKN220 75 42     30%   74 29.95 29.71      
Jun 09 06:58 SSW 8 10 Mostly Cloudy BKN220 62 49     60%     29.95 29.72      
Jun 08 05:58 Calm 10 Partly Cloudy FEW120 SCT220 55 49     79%     30.1 29.91      
Jun 08 04:58 Calm 10 Partly Cloudy FEW120 SCT220 55 47     76%     30.12 29.94      
Jun 07 23:20 6 10 Mostly Cloudy FEW055 BKN120 BKN220 61 57     88%     30.17 29.96      
Notice The following observation data may not be complete
Jun 07 22:25   10 Thunderstorms and Rain SCT100          %              
Notice The following observation data may not be complete
Jun 07 21:58   10 Thunderstorms SCT060 BKN100 BKN140 BKN220          %              
Jun 07 09:58 S 7 10 Clear   69 49     48%     30.21 30.01      
Jun 05 23:58 S 9 10 Mostly Clear FEW160 FEW200 57 47     69%     30.15 29.93      
Notice The following observation data may not be complete
Jun 05 20:58   10 Mostly Cloudy FEW080 SCT130 BKN200          %              
Jun 05 19:58 SSE 5 10 Mostly Cloudy FEW070 SCT110 BKN200 66 52     62%     30.12 29.92